SCOUT X-4 R/B, 1815

Orbit data source: Space-Track

SCOUT X-4 R/B, 1815 is space debris in LEO originally from a launch on Mon, 06 Dec 1965 UTC launched from the Air Force Western Test Range (AFWTR). Debris objects in space refer to the collection of defunct objects orbiting the Earth. Examples of debris include non-operational satellites, rocket bodies, and fragments generated from explosions, collisions, or faulty payload assembly.

Loading next visibility...
Identifier
1815, 1965-101B
Orbit
LEO
Country
Flag of USUS
Related business
Manufacturer
ABL
Mission
Spacecraft
Bus & Motor
ALTAIR, Unknown motor
Mass
33 kg wet, 33 kg dry
Launch date (UTC)
1965-12-06 (61 years ago)
Launch vehicle
Unknown
Launch site
Air Force Western Test Range (AFWTR)
Object type
Payload
Rocket body
Debris
Shape & HBR
Unknown
Radar Cross Section
Medium (>0.1 m² and <1 m²)

Expand to show TLE details & history
Last TLE update: 9 hours ago

TLE from 9 hours ago
0 SCOUT X-4 R/B
1  1815U 65101B   26194.73534515  .00001310  00000-0  13104-3 0  9990
2  1815  75.8415 301.2973 0005727  65.0109 295.1678 14.92048895 72180
Epoch: 2026-07-13T17:38Z
TLE epoch observation values (Epoch: 2026-07-13T17:38:53.820Z)
Latitude
-0.00005°
Longitude
104.95744°
Altitude
592.631 km
Speed
7.565 km/s
True Right ascension
20h 05m 11s
True Declination
0° 00' 00"
Sunlit
Object was in full shadow at epoch
Visualization orbit readout
Latitude
Unknown
Longitude
Unknown
Altitude
Unknown
Speed
Unknown
Apparent Right ascension
Unknown
Apparent Declination
Unknown
Sunlit
N/A
Visualization observer readout
Local Sidereal Time
15:28:48
Azimuth
Unknown
Elevation
Unknown
Doppler factor
Unknown
Orbital elements
Apogee altitude
592.95 km
Perigee altitude
584.97 km
Semi-major axis
6,967.097 km
Eccentricity
0.00057
Inclination
75.8415°
RAAN
301.2973°
Arg. of periapsis
65.0109°
True anomaly
295.10839°
Mean anomaly
295.1678°
Eccentric anomaly
295.13809°
Mean motion
3.7322 °/min
Orbital period
96.46 mins
BSTAR
0.00013104
Loading maneuver chart data...
Computing Atmospheric mass density...
Loading historical data...
Loading historical data...
Loading historical data...
Loading historical data...
Loading historical data...
Loading historical data...
Loading historical data...

Documentation

Showing up to 5 results
|